Time,TemperatureF,DewpointF,PressureIn,WindDirection,WindDirectionDegrees,WindSpeedMPH,WindSpeedGustMPH,Humidity,HourlyPrecipIn,Conditions,Clouds,dailyrainin,SolarRadiationWatts/m^2,SoftwareType,DateUTC
2013-03-04 00:01:00,28.0,14.0,-100.00,ENE,59,2.0,7.0,56,0.00,,,0.03,1.000000,,2013-03-04 07:01:00,
2013-03-04 00:11:00,28.0,14.0,-100.00,ENE,59,2.0,7.0,56,0.00,,,0.03,1.000000,,2013-03-04 07:11:00,
2013-03-04 00:32:00,27.0,15.0,-100.00,NNE,28,2.0,7.0,59,0.00,,,0.03,1.000000,,2013-03-04 07:32:00,
2013-03-04 00:42:00,27.0,15.0,-100.00,NNE,28,2.0,7.0,59,0.00,,,0.03,1.000000,,2013-03-04 07:42:00,
2013-03-04 00:52:00,27.0,15.0,-100.00,NNE,28,2.0,7.0,59,0.00,,,0.03,1.000000,,2013-03-04 07:52:00,
2013-03-04 01:01:00,27.0,15.0,-100.00,NNE,28,2.0,7.0,59,0.00,,,0.03,1.000000,,2013-03-04 08:01:00,
2013-03-04 01:11:00,27.0,15.0,-100.00,NNE,28,2.0,7.0,59,0.00,,,0.03,1.000000,,2013-03-04 08:11:00,
2013-03-04 01:42:00,26.0,14.0,-100.00,NNW,346,2.0,9.0,59,0.00,,,0.03,1.000000,,2013-03-04 08:42:00,
2013-03-04 01:52:00,26.0,14.0,-100.00,NNW,346,2.0,9.0,59,0.00,,,0.03,1.000000,,2013-03-04 08:52:00,
2013-03-04 02:01:00,26.0,14.0,-100.00,NNW,346,2.0,9.0,59,0.00,,,0.03,1.000000,,2013-03-04 09:01:00,
2013-03-04 02:11:00,26.0,14.0,-100.00,NNW,346,2.0,9.0,59,0.00,,,0.03,1.000000,,2013-03-04 09:11:00,
2013-03-04 02:32:00,26.0,15.0,-100.00,ENE,76,3.0,7.0,62,0.00,,,0.03,1.000000,,2013-03-04 09:32:00,
2013-03-04 02:42:00,26.0,15.0,-100.00,ENE,76,3.0,7.0,62,0.00,,,0.03,1.000000,,2013-03-04 09:42:00,
2013-03-04 02:52:00,26.0,15.0,-100.00,ENE,76,3.0,7.0,62,0.00,,,0.03,1.000000,,2013-03-04 09:52:00,
2013-03-04 03:01:00,26.0,15.0,-100.00,ENE,76,3.0,7.0,62,0.00,,,0.03,1.000000,,2013-03-04 10:01:00,
2013-03-04 03:11:00,26.0,15.0,-100.00,ENE,76,3.0,7.0,62,0.00,,,0.03,1.000000,,2013-03-04 10:11:00,
2013-03-04 03:32:00,26.0,15.0,-100.00,NE,54,3.0,8.0,63,0.00,,,0.03,1.000000,,2013-03-04 10:32:00,
2013-03-04 03:42:00,26.0,15.0,-100.00,NE,54,3.0,8.0,63,0.00,,,0.03,1.000000,,2013-03-04 10:42:00,
2013-03-04 03:52:00,26.0,15.0,-100.00,NE,54,3.0,8.0,63,0.00,,,0.03,1.000000,,2013-03-04 10:52:00,
2013-03-04 04:01:00,26.0,15.0,-100.00,NE,54,3.0,8.0,63,0.00,,,0.03,1.000000,,2013-03-04 11:01:00,
2013-03-04 04:11:00,26.0,15.0,-100.00,NE,54,3.0,8.0,63,0.00,,,0.03,1.000000,,2013-03-04 11:11:00,
2013-03-04 04:32:00,26.0,17.0,-100.00,SE,139,1.0,7.0,67,0.00,,,0.03,1.000000,,2013-03-04 11:32:00,
2013-03-04 04:42:00,26.0,17.0,-100.00,SE,139,1.0,7.0,67,0.00,,,0.03,1.000000,,2013-03-04 11:42:00,
2013-03-04 04:52:00,26.0,17.0,-100.00,SE,139,1.0,7.0,67,0.00,,,0.03,1.000000,,2013-03-04 11:52:00,
2013-03-04 05:01:00,26.0,17.0,-100.00,SE,139,1.0,7.0,67,0.00,,,0.03,1.000000,,2013-03-04 12:01:00,
2013-03-04 05:11:00,26.0,17.0,-100.00,SE,139,1.0,7.0,67,0.00,,,0.03,1.000000,,2013-03-04 12:11:00,
2013-03-04 05:32:00,25.0,20.0,-100.00,SW,235,3.0,9.0,82,0.00,,,0.02,1.000000,,2013-03-04 12:32:00,
2013-03-04 05:42:00,25.0,20.0,-100.00,SW,235,3.0,9.0,82,0.00,,,0.02,1.000000,,2013-03-04 12:42:00,
2013-03-04 05:53:00,25.0,20.0,-100.00,SW,235,3.0,9.0,82,0.00,,,0.02,1.000000,,2013-03-04 12:53:00,
2013-03-04 06:02:00,25.0,20.0,-100.00,SW,235,3.0,9.0,82,0.00,,,0.02,1.000000,,2013-03-04 13:02:00,
2013-03-04 06:11:00,25.0,20.0,-100.00,SW,235,3.0,9.0,82,0.00,,,0.02,1.000000,,2013-03-04 13:11:00,
2013-03-04 06:42:00,24.0,18.0,-100.00,SW,225,4.0,8.0,78,0.00,,,0.01,1.000000,,2013-03-04 13:42:00,
2013-03-04 06:52:00,24.0,18.0,-100.00,SW,225,4.0,8.0,78,0.00,,,0.01,1.000000,,2013-03-04 13:52:00,
2013-03-04 07:01:00,24.0,18.0,-100.00,SW,225,4.0,8.0,78,0.00,,,0.01,1.000000,,2013-03-04 14:01:00,
2013-03-04 07:11:00,24.0,18.0,-100.00,SW,225,4.0,8.0,78,0.00,,,0.01,1.000000,,2013-03-04 14:11:00,
2013-03-04 07:32:00,23.0,15.0,-100.00,WSW,237,5.0,11.0,72,0.00,,,0.00,1.000000,,2013-03-04 14:32:00,
2013-03-04 07:42:00,23.0,15.0,-100.00,WSW,237,5.0,11.0,72,0.00,,,0.00,1.000000,,2013-03-04 14:42:00,
2013-03-04 07:52:00,23.0,15.0,-100.00,WSW,237,5.0,11.0,72,0.00,,,0.00,1.000000,,2013-03-04 14:52:00,
2013-03-04 08:01:00,23.0,15.0,-100.00,WSW,237,5.0,11.0,72,0.00,,,0.00,1.000000,,2013-03-04 15:01:00,
2013-03-04 08:11:00,23.0,15.0,-100.00,WSW,237,5.0,11.0,72,0.00,,,0.00,1.000000,,2013-03-04 15:11:00,
2013-03-04 08:42:00,23.0,13.0,-100.00,SW,224,4.0,11.0,66,0.00,,,0.00,1.000000,,2013-03-04 15:42:00,
2013-03-04 08:52:00,23.0,13.0,-100.00,SW,224,4.0,11.0,66,0.00,,,0.00,1.000000,,2013-03-04 15:52:00,
2013-03-04 09:02:00,23.0,13.0,-100.00,SW,224,4.0,11.0,66,0.00,,,0.00,1.000000,,2013-03-04 16:02:00,
2013-03-04 09:11:00,23.0,13.0,-100.00,SW,224,4.0,11.0,66,0.00,,,0.00,1.000000,,2013-03-04 16:11:00,
2013-03-04 09:42:00,24.0,13.0,-100.00,South,186,3.0,7.0,63,0.00,,,0.00,22.000000,,2013-03-04 16:42:00,
2013-03-04 09:52:00,24.0,13.0,-100.00,South,186,3.0,7.0,63,0.00,,,0.00,22.000000,,2013-03-04 16:52:00,
2013-03-04 10:02:00,24.0,13.0,-100.00,South,186,3.0,7.0,63,0.00,,,0.00,22.000000,,2013-03-04 17:02:00,
2013-03-04 10:11:00,24.0,13.0,-100.00,South,186,3.0,7.0,63,0.00,,,0.00,22.000000,,2013-03-04 17:11:00,
2013-03-04 10:42:00,26.0,14.0,-100.00,SW,223,4.0,10.0,61,0.00,,,0.00,117.000000,,2013-03-04 17:42:00,
2013-03-04 10:52:00,26.0,14.0,-100.00,SW,223,4.0,10.0,61,0.00,,,0.00,117.000000,,2013-03-04 17:52:00,
2013-03-04 11:01:00,26.0,14.0,-100.00,SW,223,4.0,10.0,61,0.00,,,0.00,117.000000,,2013-03-04 18:01:00,
2013-03-04 11:11:00,26.0,14.0,-100.00,SW,223,4.0,10.0,61,0.00,,,0.00,117.000000,,2013-03-04 18:11:00,
2013-03-04 11:32:00,31.0,15.0,-100.00,WNW,283,4.0,10.0,50,0.00,,,0.00,295.000000,,2013-03-04 18:32:00,
2013-03-04 11:42:00,31.0,15.0,-100.00,WNW,283,4.0,10.0,50,0.00,,,0.00,295.000000,,2013-03-04 18:42:00,
2013-03-04 11:52:00,31.0,15.0,-100.00,WNW,283,4.0,10.0,50,0.00,,,0.00,295.000000,,2013-03-04 18:52:00,
2013-03-04 12:01:00,31.0,15.0,-100.00,WNW,283,4.0,10.0,50,0.00,,,0.00,295.000000,,2013-03-04 19:01:00,
2013-03-04 12:11:00,31.0,15.0,-100.00,WNW,283,4.0,10.0,50,0.00,,,0.00,295.000000,,2013-03-04 19:11:00,
2013-03-04 12:32:00,34.0,12.0,-100.00,WNW,297,3.0,11.0,39,0.00,,,0.00,489.000000,,2013-03-04 19:32:00,
2013-03-04 12:42:00,34.0,12.0,-100.00,WNW,297,3.0,11.0,39,0.00,,,0.00,489.000000,,2013-03-04 19:42:00,
2013-03-04 12:52:00,34.0,12.0,-100.00,WNW,297,3.0,11.0,39,0.00,,,0.00,489.000000,,2013-03-04 19:52:00,
2013-03-04 13:01:00,34.0,12.0,-100.00,WNW,297,3.0,11.0,39,0.00,,,0.00,489.000000,,2013-03-04 20:01:00,
2013-03-04 13:11:00,34.0,12.0,-100.00,WNW,297,3.0,11.0,39,0.00,,,0.00,489.000000,,2013-03-04 20:11:00,
2013-03-04 13:32:00,35.0,14.0,-100.00,NW,304,4.0,9.0,42,0.00,,,0.00,749.000000,,2013-03-04 20:32:00,
2013-03-04 13:42:00,35.0,14.0,-100.00,NW,304,4.0,9.0,42,0.00,,,0.00,749.000000,,2013-03-04 20:42:00,
2013-03-04 13:52:00,35.0,14.0,-100.00,NW,304,4.0,9.0,42,0.00,,,0.00,749.000000,,2013-03-04 20:52:00,
2013-03-04 14:01:00,35.0,14.0,-100.00,NW,304,4.0,9.0,42,0.00,,,0.00,749.000000,,2013-03-04 21:01:00,
2013-03-04 14:11:00,35.0,14.0,-100.00,NW,304,4.0,9.0,42,0.00,,,0.00,749.000000,,2013-03-04 21:11:00,
2013-03-04 14:32:00,35.0,11.0,-100.00,SW,233,3.0,10.0,37,0.00,,,0.00,326.000000,,2013-03-04 21:32:00,
2013-03-04 14:43:00,35.0,11.0,-100.00,SW,233,3.0,10.0,37,0.00,,,0.00,326.000000,,2013-03-04 21:43:00,
2013-03-04 14:52:00,35.0,11.0,-100.00,SW,233,3.0,10.0,37,0.00,,,0.00,326.000000,,2013-03-04 21:52:00,
2013-03-04 15:01:00,35.0,11.0,-100.00,SW,233,3.0,10.0,37,0.00,,,0.00,326.000000,,2013-03-04 22:01:00,
2013-03-04 15:11:00,35.0,11.0,-100.00,SW,233,3.0,10.0,37,0.00,,,0.00,326.000000,,2013-03-04 22:11:00,
2013-03-04 15:32:00,40.0,13.0,-100.00,NW,315,4.0,7.0,32,0.00,,,0.00,643.000000,,2013-03-04 22:32:00,
2013-03-04 15:43:00,40.0,13.0,-100.00,NW,315,4.0,7.0,32,0.00,,,0.00,643.000000,,2013-03-04 22:43:00,
2013-03-04 15:52:00,40.0,13.0,-100.00,NW,315,4.0,7.0,32,0.00,,,0.00,643.000000,,2013-03-04 22:52:00,
2013-03-04 16:01:00,40.0,13.0,-100.00,NW,315,4.0,7.0,32,0.00,,,0.00,643.000000,,2013-03-04 23:01:00,
2013-03-04 16:11:00,40.0,13.0,-100.00,NW,315,4.0,7.0,32,0.00,,,0.00,643.000000,,2013-03-04 23:11:00,
2013-03-04 16:32:00,38.0,12.0,-100.00,West,263,5.0,9.0,34,0.00,,,0.00,588.000000,,2013-03-04 23:32:00,
2013-03-04 16:42:00,38.0,12.0,-100.00,West,263,5.0,9.0,34,0.00,,,0.00,588.000000,,2013-03-04 23:42:00,
2013-03-04 16:52:00,38.0,12.0,-100.00,West,263,5.0,9.0,34,0.00,,,0.00,588.000000,,2013-03-04 23:52:00,
2013-03-04 17:01:00,38.0,12.0,-100.00,West,263,5.0,9.0,34,0.00,,,0.00,588.000000,,2013-03-05 00:01:00,
2013-03-04 17:11:00,38.0,12.0,-100.00,West,263,5.0,9.0,34,0.00,,,0.00,588.000000,,2013-03-05 00:11:00,
2013-03-04 17:42:00,38.0,9.0,-100.00,SSW,200,2.0,8.0,29,0.00,,,0.00,446.000000,,2013-03-05 00:42:00,
2013-03-04 17:52:00,38.0,9.0,-100.00,SSW,200,2.0,8.0,29,0.00,,,0.00,446.000000,,2013-03-05 00:52:00,
2013-03-04 18:01:00,38.0,9.0,-100.00,SSW,200,2.0,8.0,29,0.00,,,0.00,446.000000,,2013-03-05 01:01:00,
2013-03-04 18:11:00,38.0,9.0,-100.00,SSW,200,2.0,8.0,29,0.00,,,0.00,446.000000,,2013-03-05 01:11:00,
2013-03-04 19:42:00,30.0,12.0,-100.00,South,188,2.0,9.0,47,-99.99,,,0.00,22.000000,,2013-03-05 02:42:00,
2013-03-04 19:52:00,30.0,12.0,-100.00,South,188,2.0,9.0,47,-99.99,,,0.00,22.000000,,2013-03-05 02:52:00,
2013-03-04 20:01:00,30.0,12.0,-100.00,South,188,2.0,9.0,47,-99.99,,,0.00,22.000000,,2013-03-05 03:01:00,
2013-03-04 20:11:00,30.0,12.0,-100.00,South,188,2.0,9.0,47,-99.99,,,0.00,22.000000,,2013-03-05 03:11:00,
2013-03-04 20:32:00,28.0,14.0,-100.00,SSW,193,2.0,6.0,56,0.00,,,0.00,2.000000,,2013-03-05 03:32:00,
2013-03-04 20:42:00,28.0,14.0,-100.00,SSW,193,2.0,6.0,56,0.00,,,0.00,2.000000,,2013-03-05 03:42:00,
2013-03-04 20:52:00,28.0,14.0,-100.00,SSW,193,2.0,6.0,56,0.00,,,0.00,2.000000,,2013-03-05 03:52:00,
2013-03-04 21:01:00,28.0,14.0,-100.00,SSW,193,2.0,6.0,56,0.00,,,0.00,2.000000,,2013-03-05 04:01:00,
2013-03-04 21:11:00,28.0,14.0,-100.00,SSW,193,2.0,6.0,56,0.00,,,0.00,2.000000,,2013-03-05 04:11:00,
2013-03-04 21:32:00,25.0,14.0,-100.00,NNE,28,1.0,6.0,63,0.00,,,0.00,1.000000,,2013-03-05 04:32:00,
2013-03-04 21:42:00,25.0,14.0,-100.00,NNE,28,1.0,6.0,63,0.00,,,0.00,1.000000,,2013-03-05 04:42:00,
2013-03-04 21:52:00,25.0,14.0,-100.00,NNE,28,1.0,6.0,63,0.00,,,0.00,1.000000,,2013-03-05 04:52:00,
2013-03-04 22:01:00,25.0,14.0,-100.00,NNE,28,1.0,6.0,63,0.00,,,0.00,1.000000,,2013-03-05 05:01:00,
2013-03-04 22:11:00,25.0,14.0,-100.00,NNE,28,1.0,6.0,63,0.00,,,0.00,1.000000,,2013-03-05 05:11:00,
2013-03-04 22:32:00,23.0,13.0,-100.00,ESE,107,0.0,2.0,65,0.00,,,0.00,1.000000,,2013-03-05 05:32:00,
2013-03-04 22:42:00,23.0,13.0,-100.00,ESE,107,0.0,2.0,65,0.00,,,0.00,1.000000,,2013-03-05 05:42:00,
2013-03-04 22:52:00,23.0,13.0,-100.00,ESE,107,0.0,2.0,65,0.00,,,0.00,1.000000,,2013-03-05 05:52:00,
2013-03-04 23:01:00,23.0,13.0,-100.00,ESE,107,0.0,2.0,65,0.00,,,0.00,1.000000,,2013-03-05 06:01:00,
2013-03-04 23:11:00,23.0,13.0,-100.00,ESE,107,0.0,2.0,65,0.00,,,0.00,1.000000,,2013-03-05 06:11:00,
2013-03-04 23:32:00,21.0,13.0,-100.00,ESE,110,2.0,3.0,71,0.00,,,0.00,1.000000,,2013-03-05 06:32:00,
2013-03-04 23:42:00,21.0,13.0,-100.00,ESE,110,2.0,3.0,71,0.00,,,0.00,1.000000,,2013-03-05 06:42:00,
2013-03-04 23:52:00,21.0,13.0,-100.00,ESE,110,2.0,3.0,71,0.00,,,0.00,1.000000,,2013-03-05 06:52:00,